User: anonymous   Login
Location: Bothwell
(42.3833°S, 147.0000°E)
Time: 05:03:37
(UTC+10:00)
Language:

ITAMSAT 1 - Orbit

View from above orbital plane
View from above orbital plane
View from above satellite
View from above satellite

Ground track
Ground track

The orbit data is extracted from the following two-line orbital elements,

1 22826U 93061D   22267.36820460  .00000078  00000-0  47659-4 0  9997
2 22826  98.8748 300.3372 0010025 108.2758 251.9515 14.30541402512553
Epoch (UTC): 24 September 2022 08:50:12
Eccentricity: 0.0010025
inclination: 98.8748°
perigee height: 783 km
apogee height: 797 km
right ascension of ascending node: 300.3372°
argument of perigee: 108.2758°
revolutions per day: 14.30541402
mean anomaly at epoch: 251.9515°
orbit number at epoch: 51255

The dashed part of the orbit path shows where the satellite is in the earth's shadow,  

DLR